Погода в Биракане

Россия / Еврейская автономная область     48°59′38″N   131°43′17″E
темп.,
°C
ветер,
м/с
пор.,
м/с
влажн.,
%
обл.,
%
осадки,
мм/ч
давл.,
гПа
погр.,
м
7 мая, пт
пт701:00+4зюз119427 0.0 100210
04:00+4сз0093100 0.0 100210
07:00+5с118884 0.0 100145
10:00+11в2354100 0.0 1000803
13:00+11в3461100 0.3 998994
16:00+9ссв2581100 2.1 996658
19:00+7в4992100 7.2 995974
22:00+6в31096100 15.8 994993
8 мая, сб
сб801:00+5всв31194100 5.4 993981
04:00+4с1497100 8.6 992614
07:00+3ссв1298100 2.8 993521
10:00+3всв1398100 4.9 995486
13:00+3в2898100 1.1 996492
16:00+3в31097100 1.3 996750
19:00+2всв31198100 1.9 997744
22:00+3в41395100 3.6 997902
9 мая, вс
вс901:00+4всв41395100 1.4 996963
04:00+4всв31294100 3.5 994981
07:00+4всв31296100 2.5 995992
10:00+3всв31297100 6.2 9961024
13:00+4всв31194100 0.9 998872
16:00+4ссв1696100 2.6 999675
19:00+4ссз1398100 0.8 1001150
22:00+4с1198100 1.1 100435
10 мая, пн
пн1001:00+4сз1198100 1.0 100519
04:00+4з1199100 2.9 100721
07:00+4з1198100 0.4 100858
10:00+5з1294100 0.5 1009271
13:00+6зсз1492100 0.0 1010574
16:00+8з238197 0.1 1010755
19:00+9з248298 0.1 1010351
22:00+5з119695 0.1 101217
11 мая, вт
вт1101:00+5зсз1195100 0.0 101312
04:00+6вюв1295100 0.3 101490
07:00+5вюв1397100 0.3 1015185
10:00+5вюв138999 0.5 1016464
13:00+7ююв2381100 0.1 1016755
16:00+9юв2274100 0.1 1015811
19:00+8юв2478100 0.1 1015604
22:00+4вюв119536 0.1 101620